• In Czech Republic
  • List of Countries
  • For 7 days
  • Water Temperature
  • Satellite Maps
  • Weather Map
  • Weather Widgets
  • user-avatar
    Login

    Hourly Weather Indianapolis

    Today, 23 February, Friday

    Time Temperature Precipitation Wind Pressure Humidity
    00:00 +6°C° 0 mm 2 mps 749 mmHg 93%
    01:00 +5°C° 0.3 mm 3 mps 749 mmHg 94%
    02:00 +6°C° 0.3 mm 4 mps 748 mmHg 95%
    03:00 +6°C° 0.3 mm 4 mps 747 mmHg 96%
    04:00 +7°C° 0.5 mm 4 mps 747 mmHg 96%
    05:00 +8°C° 0.5 mm 4 mps 746 mmHg 97%
    06:00 +8°C° 0 mm 4 mps 746 mmHg 96%
    07:00 +10°C° 0.2 mm 4 mps 746 mmHg 96%
    08:00 +10°C° 0.2 mm 5 mps 746 mmHg 96%
    09:00 +12°C° 0.2 mm 5 mps 746 mmHg 96%
    10:00 +12°C° 0 mm 5 mps 747 mmHg 92%
    11:00 +12°C° 0 mm 5 mps 747 mmHg 88%
    12:00 +13°C° 0 mm 5 mps 747 mmHg 85%
    13:00 +12°C° 0 mm 5 mps 747 mmHg 83%
    14:00 +12°C° 0 mm 4 mps 747 mmHg 81%
    15:00 +12°C° 0 mm 4 mps 747 mmHg 79%
    16:00 +11°C° 0 mm 3 mps 747 mmHg 82%
    17:00 +10°C° 0 mm 3 mps 747 mmHg 84%
    18:00 +9°C° 0 mm 2 mps 747 mmHg 87%
    19:00 +9°C° 0 mm 2 mps 747 mmHg 88%
    20:00 +8°C° 0 mm 2 mps 747 mmHg 88%
    21:00 +8°C° 0 mm 2 mps 748 mmHg 89%
    22:00 +7°C° 0 mm 2 mps 748 mmHg 89%
    23:00 +7°C° 0 mm 2 mps 747 mmHg 88%

    Tomorrow, 24 February, Saturday

    Time Temperature Precipitation Wind Pressure Humidity
    00:00 +7°C° 0 mm 2 mps 747 mmHg 88%
    01:00 +6°C° 0.9 mm 2 mps 747 mmHg 88%
    02:00 +5°C° 0.9 mm 3 mps 747 mmHg 89%
    03:00 +5°C° 0.9 mm 3 mps 746 mmHg 89%
    04:00 +5°C° 2.2 mm 3 mps 746 mmHg 90%
    05:00 +4°C° 2.2 mm 3 mps 746 mmHg 91%
    06:00 +4°C° 2.2 mm 3 mps 745 mmHg 92%
    07:00 +4°C° 2.8 mm 3 mps 745 mmHg 93%
    08:00 +5°C° 2.8 mm 3 mps 745 mmHg 93%
    09:00 +5°C° 2.8 mm 3 mps 744 mmHg 94%
    10:00 +5°C° 2.6 mm 4 mps 744 mmHg 93%
    11:00 +5°C° 2.6 mm 4 mps 743 mmHg 92%
    12:00 +6°C° 2.6 mm 5 mps 743 mmHg 92%
    13:00 +6°C° 0.4 mm 5 mps 742 mmHg 91%
    14:00 +7°C° 0.4 mm 4 mps 741 mmHg 90%
    15:00 +8°C° 0.4 mm 4 mps 740 mmHg 90%
    16:00 +8°C° 1.7 mm 5 mps 739 mmHg 92%
    17:00 +8°C° 1.7 mm 5 mps 738 mmHg 93%
    18:00 +8°C° 1.7 mm 6 mps 737 mmHg 95%
    19:00 +9°C° 3.3 mm 6 mps 736 mmHg 95%
    20:00 +10°C° 3.3 mm 6 mps 735 mmHg 96%
    21:00 +10°C° 3.3 mm 6 mps 734 mmHg 96%
    22:00 +13°C° 4.4 mm 6 mps 733 mmHg 96%
    23:00 +14°C° 4.4 mm 6 mps 732 mmHg 95%

    Day after tomorrow, 25 February, Sunday

    Time Temperature Precipitation Wind Pressure Humidity
    00:00 +15°C° 4.4 mm 7 mps 731 mmHg 94%
    01:00 +14°C° 0.4 mm 7 mps 731 mmHg 86%
    02:00 +12°C° 0.4 mm 7 mps 732 mmHg 79%
    03:00 +12°C° 0.4 mm 8 mps 732 mmHg 71%
    04:00 +10°C° 0 mm 8 mps 733 mmHg 74%
    05:00 +7°C° 0 mm 8 mps 735 mmHg 77%
    06:00 +6°C° 0 mm 8 mps 736 mmHg 79%
    07:00 +5°C° 0 mm 8 mps 737 mmHg 76%
    08:00 +5°C° 0 mm 8 mps 738 mmHg 74%
    09:00 +4°C° 0 mm 7 mps 739 mmHg 71%
    10:00 +5°C° 0 mm 7 mps 740 mmHg 67%
    11:00 +6°C° 0 mm 7 mps 740 mmHg 64%
    12:00 +6°C° 0 mm 7 mps 741 mmHg 60%
    13:00 +8°C° 0 mm 7 mps 741 mmHg 58%
    14:00 +8°C° 0 mm 6 mps 741 mmHg 56%
    15:00 +8°C° 0 mm 6 mps 741 mmHg 55%
    16:00 +7°C° 0 mm 5 mps 742 mmHg 59%
    17:00 +7°C° 0 mm 4 mps 742 mmHg 63%
    18:00 +7°C° 0 mm 3 mps 743 mmHg 67%
    19:00 +5°C° 0 mm 3 mps 743 mmHg 69%
    20:00 +6°C° 0 mm 2 mps 743 mmHg 71%
    21:00 +5°C° 0 mm 2 mps 744 mmHg 73%
    22:00 +5°C° 0 mm 2 mps 744 mmHg 75%
    23:00 +4°C° 0 mm 2 mps 744 mmHg 76%

    26 February, Monday

    Time Temperature Precipitation Wind Pressure Humidity
    00:00 +4°C° 0 mm 2 mps 744 mmHg 77%
    01:00 +4°C° 0 mm 2 mps 744 mmHg 77%
    02:00 +4°C° 0 mm 2 mps 744 mmHg 76%
    03:00 +3°C° 0 mm 2 mps 744 mmHg 76%
    04:00 +3°C° 0 mm 2 mps 744 mmHg 77%
    05:00 +3°C° 0 mm 2 mps 745 mmHg 77%
    06:00 +3°C° 0 mm 2 mps 745 mmHg 78%
    07:00 +4°C° 0 mm 2 mps 746 mmHg 73%
    08:00 +5°C° 0 mm 2 mps 746 mmHg 69%
    09:00 +7°C° 0 mm 2 mps 747 mmHg 64%
    10:00 +8°C° 0 mm 2 mps 747 mmHg 58%
    11:00 +10°C° 0 mm 3 mps 747 mmHg 52%
    12:00 +11°C° 0 mm 3 mps 748 mmHg 46%
    13:00 +11°C° 0 mm 3 mps 747 mmHg 45%
    14:00 +12°C° 0 mm 3 mps 747 mmHg 43%
    15:00 +12°C° 0 mm 4 mps 747 mmHg 41%
    16:00 +11°C° 0 mm 3 mps 747 mmHg 46%
    17:00 +9°C° 0 mm 2 mps 748 mmHg 51%
    18:00 +9°C° 0 mm 1 mps 748 mmHg 55%
    19:00 +8°C° 0 mm 1 mps 748 mmHg 57%
    20:00 +8°C° 0 mm 1 mps 749 mmHg 58%
    21:00 +7°C° 0 mm 1 mps 749 mmHg 60%
    22:00 +7°C° 0 mm 1 mps 749 mmHg 61%
    23:00 +6°C° 0 mm 1 mps 749 mmHg 62%

    27 February, Tuesday

    Time Temperature Precipitation Wind Pressure Humidity
    00:00 +6°C° 0 mm 1 mps 749 mmHg 63%
    01:00 +5°C° 0 mm 2 mps 749 mmHg 64%
    02:00 +5°C° 0 mm 2 mps 749 mmHg 65%
    03:00 +4°C° 0 mm 2 mps 749 mmHg 66%
    04:00 +4°C° 0 mm 2 mps 749 mmHg 68%
    05:00 +4°C° 0 mm 2 mps 749 mmHg 70%
    06:00 +3°C° 0 mm 2 mps 749 mmHg 72%
    07:00 +5°C° 0 mm 2 mps 750 mmHg 70%
    08:00 +7°C° 0 mm 3 mps 750 mmHg 68%
    09:00 +8°C° 0 mm 3 mps 750 mmHg 66%
    10:00 +10°C° 0 mm 4 mps 749 mmHg 62%
    11:00 +12°C° 0 mm 4 mps 749 mmHg 57%
    12:00 +13°C° 0 mm 4 mps 748 mmHg 52%
    13:00 +14°C° 0 mm 4 mps 747 mmHg 51%
    14:00 +14°C° 0 mm 4 mps 746 mmHg 50%
    15:00 +14°C° 0 mm 4 mps 746 mmHg 50%
    16:00 +13°C° 0 mm 4 mps 745 mmHg 56%
    17:00 +12°C° 0 mm 3 mps 745 mmHg 62%
    18:00 +10°C° 0 mm 3 mps 745 mmHg 68%
    19:00 +10°C° 0 mm 3 mps 744 mmHg 70%
    20:00 +9°C° 0 mm 3 mps 744 mmHg 72%
    21:00 +9°C° 0 mm 3 mps 743 mmHg 74%
    22:00 +9°C° 0 mm 3 mps 743 mmHg 74%
    23:00 +9°C° 0 mm 3 mps 743 mmHg 74%

    28 February, Wednesday

    Time Temperature Precipitation Wind Pressure Humidity
    00:00 +9°C° 0 mm 3 mps 742 mmHg 74%
    01:00 +9°C° 0 mm 3 mps 742 mmHg 77%
    02:00 +8°C° 0 mm 3 mps 741 mmHg 79%
    03:00 +8°C° 0 mm 3 mps 741 mmHg 82%
    04:00 +8°C° 0.5 mm 3 mps 740 mmHg 86%
    05:00 +8°C° 0.5 mm 3 mps 740 mmHg 89%
    06:00 +8°C° 0.5 mm 3 mps 740 mmHg 93%
    07:00 +8°C° 1.1 mm 4 mps 739 mmHg 92%
    08:00 +10°C° 1.1 mm 4 mps 739 mmHg 92%
    09:00 +9°C° 1.1 mm 5 mps 738 mmHg 92%
    10:00 +10°C° 0.2 mm 5 mps 737 mmHg 90%
    11:00 +10°C° 0.2 mm 5 mps 737 mmHg 88%
    12:00 +12°C° 0.2 mm 5 mps 736 mmHg 86%
    13:00 +12°C° 0.8 mm 5 mps 735 mmHg 88%
    14:00 +12°C° 0.8 mm 5 mps 734 mmHg 91%
    15:00 +13°C° 0.8 mm 5 mps 733 mmHg 93%
    16:00 +13°C° 2.6 mm 5 mps 732 mmHg 94%
    17:00 +13°C° 2.6 mm 4 mps 731 mmHg 95%
    18:00 +13°C° 2.6 mm 4 mps 730 mmHg 96%
    19:00 +13°C° 2.6 mm 4 mps 729 mmHg 96%
    20:00 +13°C° 2.6 mm 5 mps 728 mmHg 96%
    21:00 +13°C° 2.6 mm 5 mps 726 mmHg 96%
    22:00 +14°C° 1.6 mm 6 mps 726 mmHg 92%
    23:00 +14°C° 1.6 mm 6 mps 725 mmHg 89%
    Show more